COSMOS 1275 DEB, 13484

Orbit data source: Space-Track

COSMOS 1275 DEB, 13484 is space debris in LEO originally from a launch on Thu, 04 Jun 1981 UTC launched from the Plesetsk Missile And Space Complex (PKMTR). Debris objects in space refer to the collection of defunct objects orbiting the Earth. Examples of debris include non-operational satellites, rocket bodies, and fragments generated from explosions, collisions, or faulty payload assembly.

Loading next visibility...
Identifier
13484, 1981-053GE
Orbit
LEO
Country
Flag of CISCIS
Related business
Manufacturer
Unknown
Mission
Spacecraft
Bus & Motor
Unknown
Mass
Unknown
Launch date (UTC)
1981-06-04 (45 years ago)
Launch vehicle
Unknown
Launch site
Plesetsk Missile And Space Complex (PKMTR)
Object type
Payload
Rocket body
Debris
Shape & HBR
Unknown shape, 0.1 m
Radar Cross Section
Small (<0.1 m²)

Expand to show TLE details & history
Last TLE update: 11 hours ago

TLE from 11 hours ago
0 COSMOS 1275 DEB
1 13484U 81053GE  26121.71288348  .00001468  00000-0  93423-3 0  9993
2 13484  82.9207  24.3814 0028432 123.7179 256.4033 14.02885536219334
Epoch: 2026-05-01T17:06Z
TLE epoch observation values (Epoch: 2026-05-01T17:06:33.132Z)
Latitude
19.64839°
Longitude
-89.36986°
Altitude
891.229 km
Speed
7.406 km/s
True Right ascension
01h 47m 38s
True Declination
19° 32' 30"
Sunlit
Object was in daylight at epoch
Visualization orbit readout
Latitude
Unknown
Longitude
Unknown
Altitude
Unknown
Speed
Unknown
Apparent Right ascension
Unknown
Apparent Declination
Unknown
Sunlit
N/A
Visualization observer readout
Local Sidereal Time
11:32:02
Azimuth
Unknown
Elevation
Unknown
Doppler factor
Unknown
Orbital elements
Apogee altitude
901.57 km
Perigee altitude
860.292 km
Semi-major axis
7,259.068 km
Eccentricity
0.00284
Inclination
82.9207°
RAAN
24.3814°
Arg. of periapsis
123.7179°
True anomaly
256.08689°
Mean anomaly
256.4033°
Eccentric anomaly
256.24507°
Mean motion
3.50931 °/min
Orbital period
102.58 mins
BSTAR
0.00093423
Loading maneuver chart data...
Computing Atmospheric mass density...
Loading historical data...
Loading historical data...
Loading historical data...
Loading historical data...
Loading historical data...
Loading historical data...
Loading historical data...

Documentation

Showing up to 5 results
|